Location: Marcé
(47.5801°N, 0.3280°W)
Time: 18:49:10
(UTC+01:00)

Transit 4A - All Passes

Search period start: 06 December 2021 00:00
Search period end: 16 December 2021 00:00
Orbit: 866 x 978 km, 66.8° (Epoch: 05 December)

Date Brightness Start Highest point End Pass type
(mag) Time Alt. Az. Time Alt. Az. Time Alt. Az.
06 Dec - 00:57:39 10° NNW 01:00:26 13° N 01:03:15 10° NE night (unlit)
06 Dec - 02:43:55 10° NNW 02:49:07 27° NE 02:54:23 10° E night (unlit)
06 Dec - 04:29:58 10° NW 04:36:17 88° SW 04:42:40 10° SSE visible
06 Dec - 06:17:48 10° WNW 06:21:49 18° WSW 06:25:54 10° SW visible
06 Dec - 17:59:10 10° ESE 18:00:40 11° E 18:02:10 10° E visible
06 Dec - 19:40:00 10° SSW 19:45:48 66° ESE 19:51:49 10° NE visible
06 Dec - 21:27:24 10° W 21:32:38 31° NW 21:38:02 10° NNE visible
06 Dec - 23:18:06 10° NW 23:21:07 14° NNW 23:24:11 10° NNE night (unlit)
07 Dec - 01:07:04 10° NNW 01:10:20 14° NNE 01:13:38 10° NE night (unlit)
07 Dec - 02:53:07 10° NNW 02:58:44 34° NE 03:04:25 10° ESE night (unlit)
07 Dec - 04:39:19 10° NW 04:45:32 65° WSW 04:51:50 10° SSE visible
07 Dec - 06:28:40 10° W 06:30:45 12° W 06:32:51 10° WSW visible
07 Dec - 18:05:54 10° SE 18:09:34 17° ESE 18:13:18 10° ENE visible
07 Dec - 19:49:09 10° SSW 19:55:04 89° NW 20:01:10 10° NE visible
07 Dec - 21:37:26 10° W 21:42:17 25° NNW 21:47:15 10° NNE visible
07 Dec - 23:28:23 10° NNW 23:31:02 13° N 23:33:42 10° NNE night (unlit)
08 Dec - 01:16:23 10° NNW 01:20:12 16° NNE 01:24:03 10° ENE night (unlit)
08 Dec - 03:02:20 10° NNW 03:08:16 43° NE 03:14:19 10° ESE night (unlit)
08 Dec - 04:48:46 10° NW 04:54:44 46° WSW 05:00:46 10° S visible
08 Dec - 18:13:51 10° SSE 18:18:33 25° ESE 18:23:21 10° NE visible
08 Dec - 19:58:32 10° SW 20:04:24 66° NW 20:10:28 10° NNE visible
08 Dec - 21:47:36 10° WNW 21:51:59 20° NNW 21:56:28 10° NNE visible
08 Dec - 23:38:28 10° NNW 23:40:57 12° N 23:43:28 10° NNE night (unlit)
09 Dec - 01:25:38 10° NNW 01:30:00 19° NNE 01:34:26 10° ENE night (unlit)
09 Dec - 03:11:34 10° NNW 03:17:45 57° NE 03:24:00 10° SE night (unlit)
09 Dec - 04:58:21 10° NW 05:03:51 33° WSW 05:09:24 10° S visible
09 Dec - 18:22:16 10° S 18:27:36 36° ESE 18:33:03 10° NE visible
09 Dec - 20:08:06 10° WSW 20:13:49 48° NW 20:19:43 10° NNE visible
09 Dec - 21:57:53 10° WNW 22:01:45 17° NNW 22:05:42 10° NNE visible
09 Dec - 23:48:17 10° NNW 23:50:54 13° N 23:53:31 10° NNE night (unlit)
10 Dec - 01:34:50 10° NNW 01:39:45 23° NNE 01:44:43 10° E night (unlit)
10 Dec - 03:20:50 10° NNW 03:27:08 77° NE 03:33:31 10° SE night (unlit)
10 Dec - 05:08:08 10° WNW 05:12:54 23° WSW 05:17:42 10° SSW night (unlit)
10 Dec - 18:31:02 10° S 18:36:43 52° ESE 18:42:35 10° NE visible
10 Dec - 20:17:51 10° WSW 20:23:19 37° NW 20:28:58 10° NNE visible
10 Dec - 22:08:15 10° NW 22:11:36 15° NNW 22:15:01 10° NNE visible
10 Dec - 23:57:51 10° NNW 00:00:49 14° NNE 00:03:49 10° NE night (unlit)
11 Dec - 01:44:02 10° NNW 01:49:25 29° NE 01:54:51 10° E night (unlit)
11 Dec - 03:30:08 10° NW 03:36:26 79° WSW 03:42:49 10° SSE night (unlit)
11 Dec - 05:18:20 10° WNW 05:21:52 16° WSW 05:25:26 10° SW night (unlit)
11 Dec - 16:58:05 10° SE 17:00:40 13° E 17:03:17 10° ENE daylight
11 Dec - 18:40:03 10° SSW 18:45:55 75° ESE 18:52:01 10° NE visible
11 Dec - 20:27:47 10° W 20:32:54 29° NW 20:38:10 10° NNE visible
11 Dec - 22:18:35 10° NW 22:21:29 13° N 22:24:26 10° NNE visible
12 Dec - 00:07:14 10° NNW 00:10:43 15° NNE 00:14:13 10° NE night (unlit)
12 Dec - 01:53:14 10° NNW 01:59:00 37° NE 02:04:50 10° ESE night (unlit)
12 Dec - 03:39:31 10° NW 03:45:40 57° WSW 03:51:54 10° SSE night (unlit)
12 Dec - 17:05:29 10° SSE 17:09:36 20° ESE 17:13:48 10° ENE daylight
12 Dec - 18:49:18 10° SW 18:55:12 80° NW 19:01:21 10° NNE visible
12 Dec - 20:37:52 10° W 20:42:34 23° NNW 20:47:23 10° NNE visible
12 Dec - 22:28:49 10° NNW 22:31:24 13° N 22:34:02 10° NNE visible
13 Dec - 00:16:30 10° NNW 00:20:33 17° NNE 00:24:37 10° ENE night (unlit)
13 Dec - 02:02:27 10° NNW 02:08:31 48° NE 02:14:39 10° ESE night (unlit)
13 Dec - 03:49:01 10° NW 03:54:51 41° WSW 04:00:44 10° S night (unlit)
13 Dec - 17:13:39 10° SSE 17:18:36 29° ESE 17:23:41 10° NE daylight
13 Dec - 18:58:44 10° SW 19:04:35 59° NW 19:10:38 10° NNE visible
13 Dec - 20:48:05 10° WNW 20:52:18 19° NNW 20:56:37 10° NNE visible
13 Dec - 22:38:49 10° NNW 22:41:20 12° N 22:43:54 10° NNE visible
14 Dec - 00:25:44 10° NNW 00:30:20 21° NNE 00:34:58 10° ENE night (unlit)
14 Dec - 02:11:42 10° NNW 02:17:57 64° NE 02:24:17 10° SE night (unlit)
14 Dec - 03:58:38 10° NW 04:03:56 29° WSW 04:09:16 10° SSW night (unlit)
14 Dec - 17:22:11 10° S 17:27:41 42° ESE 17:33:19 10° NE daylight
14 Dec - 19:08:22 10° WSW 19:14:02 44° NW 19:19:53 10° NNE visible
14 Dec - 20:58:23 10° WNW 21:02:06 16° NNW 21:05:53 10° NNE visible
14 Dec - 22:48:32 10° NNW 22:51:16 13° N 22:54:03 10° NE visible
15 Dec - 00:34:57 10° NNW 00:40:03 25° NE 00:45:12 10° E night (unlit)
15 Dec - 02:20:59 10° NW 02:27:18 85° NE 02:33:43 10° SE night (unlit)
15 Dec - 04:08:33 10° WNW 04:12:57 20° WSW 04:17:24 10° SSW night (unlit)
15 Dec - 17:31:03 10° SSW 17:36:49 60° ESE 17:42:49 10° NE daylight
15 Dec - 19:18:11 10° WSW 19:23:34 34° NW 19:29:06 10° NNE visible
15 Dec - 21:08:45 10° NW 21:11:58 14° NNW 21:15:13 10° NNE visible
15 Dec - 22:58:01 10° NNW 23:01:11 14° NNE 23:04:23 10° NE visible
